Location: Jetmore Oil Field
(38.1181°N, 99.9337°W)
Time: 11:22:51
(UTC+00:00)

Cosmos 2082 Rocket - Pass Details

Date: 17 February 2020
Orbit: 832 x 854 km, 71.0° (Epoch: 08 April)

Event Time Altitude Azimuth Distance (km) Brightness Sun altitude
Rises 01:08:54 0° 338° (NNW) 3,393 5.5 -10.4°
Reaches altitude 10° 01:11:21 10° 340° (NNW) 2,458 4.8 -10.9°
Maximum altitude 01:17:01 80° 68° (ENE) 857 2.1 -12.0°
Drops below altitude 10° 01:22:40 10° 155° (SSE) 2,458 4.4 -13.1°
Sets 01:25:06 0° 157° (SSE) 3,392 5.2 -13.6°
